Regional Weather Roundup
Issued by NWS Jackson, KY

Home | Current Version | Previous Version | Graphics & Text | Print | Product List | Glossary On
Versions: 1 2 3 4 5 6 7 8 9 10 11 12 13 14 15 16 17 18 19 20 21 22 23 24 25 26 27
000
ASUS43 KJKL 191010
RWRJKL

EAST KENTUCKY HOURLY WEATHER ROUNDUP
NATIONAL WEATHER SERVICE JACKSON KY
600 AM EDT SAT AUG 19 2017

NOTE: "FAIR" INDICATES FEW OR NO CLOUDS BELOW 12,000 FEET WITH
NO SIGNIFICANT WEATHER AND/OR OBSTRUCTIONS TO VISIBILITY.

* THESE REPORTS ARE NOT UNDER NWS QUALITY CONTROL AND MAY NOT
  REPORT WEATHER SUCH AS PRECIPITATION AND FOG.

KYZ079-080-083-085-087-088-110-112-115-119-120-191100
...EASTERN KENTUCKY...

CITY           SKY/WX    TMP DP  RH WIND       PRES   REMARKS
JACKSON        CLEAR     65  63  93 CALM      30.01S
LONDON         CLEAR     64  62  93 CALM      30.02S
SOMERSET*      FOG       63  63 100 CALM      30.01F VSB 1/2
MONTICELLO*    PTCLDY    62  62 100 W12       30.02S FOG
WILLIAMSBURG*  CLOUDY    63  63 100 CALM      30.02S VSB<1/4
MIDDLESBORO*   FOG       63  63 100 CALM      30.05S VSB 1/2
HARLAN APT*    CLOUDY    63  63 100 CALM      30.05S VSB 1
PIKE CO APT*   FOG       64  64 100 CALM      30.02S VSB<1/4
BIG SANDY APT* SUNNY     66  66 100 SW3       30.01S
MOREHEAD APT*  MOSUNNY   66  63  88 S5        29.99S
$$

KYZ035-036-041-042-044-050-067-078-099-191100
...CENTRAL KENTUCKY...

CITY           SKY/WX    TMP DP  RH WIND       PRES   REMARKS
MT STERLING*   CLOUDY    64  64 100 SW5       30.00R
FLEMING/MASON* CLOUDY    67  64  90 SW5       29.98R
DANVILLE*      CLOUDY    64  63  94 S3        29.98F
LEXINGTON      CLOUDY    67  63  87 S5        29.99R
FRANKFORT      CLOUDY    69  64  84 CALM      29.95R
LOUISVILLE     CLOUDY    74  67  78 CALM      29.95R
LEBANON*         N/A     70  64  83 S8        29.97R
GLASGOW*       CLOUDY    67  67 100 CALM      29.98R
BOWLING GREEN  CLOUDY    71  68  90 CALM      29.97R
$$

KYZ091>093-OHZ055-061-077-WVZ005-015-034-035-042-191100
...SOUTHERN OHIO/WEST VIRGINIA...

CITY           SKY/WX    TMP DP  RH WIND       PRES   REMARKS
COVINGTON      CLOUDY    69  67  93 CALM      29.95R
COLUMBUS       CLOUDY    67  66  97 SE5       29.92R
DAYTON         CLOUDY    68  63  84 SW10      29.94R
WILMINGTON     CLOUDY    65  65 100 S6        29.94R
HUNTINGTON     CLEAR     67  64  90 SW6       29.97R
CHARLESTON     MOCLDY    66  64  93 CALM      29.97S
PINEVILLE*     CLOUDY    66  66  97 MISG      30.08R FOG
BECKLEY        MOCLDY    63  62  97 SW3       30.05R FOG
BLUEFIELD      CLEAR     60  58  92 W5        30.08R
LOGAN CO APT*  FOG       66  66 100 CALM      30.01S VSB<1/4
$$

VAZ002-007-008-TNZ017-027-036-066-071-191100
...SOUTHWEST VIRGINIA/EAST TENNESSEE...

CITY           SKY/WX    TMP DP  RH WIND       PRES   REMARKS
WISE*          CLEAR     61  61 100 CALM      30.10R FOG
JONESVILLE*    FOG       63  63 100 CALM      30.06S VSB<1/4
ABINGDON*      CLEAR     64  64 100 CALM      30.06R FOG
BRISTOL        FOG       64  64 100 CALM      30.04R VSB 1/4
MORRISTOWN*    MOSUNNY   64  64 100 CALM      30.03R
SEVIERVILLE*   SUNNY     63  63 100 CALM      30.02R
KNOXVILLE      PTCLDY    65  64  97 E3        30.01R
LAFOLLETTE*    FOG       63  63 100 CALM      30.05F VSB 0
OAK RIDGE      PTCLDY    65  63  93 CALM      30.02F
CROSSVILLE     CLEAR     60  59  96 CALM      30.05F
NASHVILLE      MOCLDY    68  66  93 S5        29.98R
$$

...KEY TO REMARKS...
VSB - VISIBILITY IN MILES
WCI - WIND CHILL INDEX
HX  - HEAT INDEX

$$




USA.gov is the U.S. government's official web portal to all federal, state and local government web resources and services.